[[{"header":{"parameterUnit":"m.s-1","parameterCategory":1,"la1":30.2991,"la2":30.254,"lo1":-89.0895,"lo2":-89.0444,"dy":0.0017,"dx":0.0017,"nx":28,"ny":28,"refTime":"2025-06-20T09:00:00:Z","depth":0,"parameterNumber":2,"parameterNumberName":"U-component_of_WINDS"},"data":[0,0,0,0,0,0,0,0,0,0,0,0,0,0,0,0,0,0,0,0,0,0,0,0,0,0,0,0,0,0,0,0,0,0,0,0,0,0,0,0,0,0,0,0,0,0,0,0,0,0,0,0,0,0,0,0,0,0,0.6453,0.6453,0,0.6472,0.6473,0.6473,0.6478,0.6478,0.6478,0.6478,0.6496,0.6497,0.6497,0,0,0,0,0,0,0,0,0,0,0,0,0,0.6418,0.6418,0.6453,0.6453,0.6453,0.6472,0.6473,0.6473,0.6478,0.6478,0.6478,0.6478,0.6496,0.6497,0.6497,0,0,0,0,0,0,0,0,0,0,0,0,0,0.6435,0.6419,0.6453,0.6459,0.6459,0.6472,0.6473,0.6473,0.6478,0.6478,0.6478,0.6478,0.6496,0.6496,0.6497,0.6505,0,0,0.65,0.65,0,0,0,0,0,0,0,0,0.6434,0.6436,0.6457,0.6458,0.6459,0.6473,0.6467,0.6484,0.6479,0.6471,0.6478,0.6478,0.6488,0.649,0.6494,0.6506,0.6507,0.65,0.65,0.6501,0.6501,0,0,0,0,0,0,0,0.6432,0.6435,0.6461,0.6458,0.6459,0.6459,0.6461,0.647,0.648,0.6472,0.6472,0.6475,0.6489,0.6493,0.6494,0.6507,0.65,0.6501,0.6501,0.6502,0.6526,0.6526,0,0,0,0,0,0,0.6431,0.6434,0.646,0.6461,0.6446,0.646,0.6462,0.6468,0.648,0.6482,0.6475,0.6475,0.6491,0.6493,0.6495,0.6504,0.6501,0.6502,0.6502,0.6526,0.6526,0.6526,0,0,0,0,0,0,0.643,0.6433,0.6459,0.6448,0.6451,0.6461,0.6467,0.6469,0.6473,0.6482,0.6484,0.6477,0.6491,0.6494,0.6502,0.6505,0.6502,0.6503,0.6526,0.6526,0.6526,0.6524,0,0,0,0,0,0,0.6429,0.6433,0.6437,0.6448,0.6452,0.6467,0.6468,0.6469,0.6475,0.6475,0.6485,0.6487,0.6491,0.6501,0.6503,0.6506,0.6503,0.6525,0.6526,0.6526,0.6523,0.6524,0.6524,0,0,0,0,0,0.6428,0.6435,0.6437,0.644,0.6457,0.6468,0.647,0.6476,0.6475,0.6478,0.6484,0.6486,0.6504,0.6502,0.6505,0.6507,0.6525,0.6526,0.6526,0.6523,0.6524,0.6524,0,0,0,0,0,0,0.6424,0.6437,0.6439,0.645,0.6458,0.6469,0.6473,0.6476,0.6483,0.6483,0.649,0.6492,0.65,0.6505,0.6502,0.6515,0.6515,0.6515,0.6512,0.6512,0.6512,0.6511,0.6504,0,0,0,0,0,0.6424,0.6433,0.6443,0.6452,0.6456,0.6464,0.6469,0.6473,0.648,0.6483,0.649,0.6497,0.6504,0.6508,0.6515,0.6524,0.6526,0.6527,0.6527,0.6527,0.6528,0.6532,0.6532,0.6527,0.6527,0.6527,0,0,0.6425,0.6433,0.6438,0.6452,0.6458,0.6465,0.6467,0.6475,0.648,0.6484,0.6493,0.6498,0.6506,0.6514,0.6519,0.6519,0.653,0.6528,0.6528,0.6528,0.6532,0.6533,0.6533,0.6527,0.6527,0.6527,0,0,0.6431,0.6439,0.6446,0.6452,0.6462,0.6467,0.6469,0.6479,0.6482,0.6491,0.6494,0.65,0.6513,0.6518,0.6522,0.6528,0.653,0.653,0.6531,0.6535,0.6535,0.6535,0.6537,0.6537,0.6531,0.6531,0.6531,0,0.6431,0.6443,0.645,0.6458,0.6463,0.6467,0.6474,0.648,0.6491,0.6494,0.6494,0.6508,0.6514,0.6524,0.6525,0.6528,0.653,0.6529,0.6535,0.6535,0.6535,0.6537,0.6537,0.6531,0.6531,0.6531,0.6531,0,0.6442,0.645,0.6455,0.6466,0.6472,0.6479,0.6486,0.6491,0.6493,0.6498,0.6506,0.6513,0.6521,0.6524,0.6527,0.6533,0.6533,0.6533,0.6533,0.6536,0.6537,0.6538,0.653,0.653,0.653,0.653,0,0,0.6447,0.646,0.6462,0.6466,0.6477,0.6483,0.6489,0.6498,0.6501,0.6508,0.6513,0.6523,0.6524,0.6528,0.6532,0.6535,0.6538,0.6535,0.6535,0.6535,0.6545,0.6544,0.6544,0.6539,0.654,0.654,0.6544,0,0.6453,0.6467,0.6472,0.6483,0.6489,0.6493,0.6499,0.6505,0.6509,0.6515,0.6519,0.6526,0.6526,0.6529,0.6532,0.6537,0.654,0.6537,0.6544,0.6544,0.6541,0.6545,0.6545,0.6548,0.6544,0.6544,0.6545,0,0.6463,0.647,0.6481,0.649,0.6493,0.6498,0.6505,0.6511,0.6517,0.652,0.6525,0.6528,0.6534,0.6533,0.6541,0.6539,0.6542,0.6544,0.6545,0.6545,0.6544,0.6546,0.655,0.655,0.6546,0.6545,0.6545,0,0.6464,0.6477,0.6485,0.6488,0.6498,0.6502,0.6506,0.6512,0.6517,0.6523,0.6525,0.6532,0.6535,0.654,0.6544,0.6543,0.6551,0.6551,0.6553,0.6553,0.6554,0.6554,0.6559,0.6557,0.6557,0.6557,0.6557,0,0.6471,0.6477,0.6485,0.649,0.6497,0.6502,0.6509,0.6513,0.6519,0.6524,0.6527,0.6531,0.6537,0.6542,0.6545,0.6551,0.6552,0.6554,0.6555,0.6554,0.6553,0.6555,0.6555,0.6557,0.6557,0.6557,0.6557,0,0.6474,0.6479,0.6488,0.6497,0.6499,0.6503,0.651,0.6514,0.6518,0.6525,0.6526,0.6532,0.6538,0.6543,0.655,0.6552,0.6558,0.6559,0.6556,0.6556,0.6558,0.6558,0.6564,0.6564,0.6562,0.6562,0.6562,0,0.6477,0.6482,0.6491,0.6495,0.6499,0.6505,0.6509,0.6514,0.6518,0.6526,0.6529,0.6535,0.654,0.6549,0.6553,0.6559,0.656,0.6561,0.6561,0.6559,0.6559,0.6559,0.6559,0.6561,0.6561,0.6561,0.6561,0,0.6483,0.6485,0.6491,0.6498,0.6503,0.6509,0.6514,0.6517,0.6523,0.6527,0.6533,0.6537,0.6544,0.655,0.6556,0.6559,0.6561,0.6562,0.6562,0.6561,0.6559,0.656,0.6556,0.6562,0.6562,0.6562,0.6562,0.6562,0.6486,0.649,0.6497,0.6503,0.6508,0.6512,0.6517,0.6521,0.6526,0.6533,0.6535,0.6541,0.6547,0.6555,0.6558,0.6562,0.6562,0.6563,0.6564,0.6564,0.6563,0.6558,0.6563,0.6563,0.6563,0.6563,0.6563,0,0.6491,0.6495,0.6501,0.6509,0.6513,0.6515,0.6521,0.6524,0.653,0.6535,0.654,0.6546,0.6551,0.6556,0.6561,0.6564,0.6565,0.6565,0.6565,0.6565,0.6563,0.6562,0.6564,0.6564,0.6564,0.6564,0.6564,0.6564,0.6494,0.6501,0.6504,0.6513,0.6517,0.6523,0.6526,0.653,0.6534,0.6541,0.6546,0.6549,0.6553,0.6559,0.6563,0.6565,0.6566,0.6566,0.6568,0.6566,0.6566,0.6565,0.6564,0.6567,0.6567,0.6569,0.6569,0.6569]},{"header":{"parameterUnit":"m.s-1","parameterCategory":1,"la1":30.2991,"la2":30.254,"lo1":-89.0895,"lo2":-89.0444,"dy":0.0017,"dx":0.0017,"nx":28,"ny":28,"refTime":"2025-06-20T09:00:00:Z","depth":0,"parameterNumber":3,"parameterNumberName":"V-component_of_WINDS"},"data":[0,0,0,0,0,0,0,0,0,0,0,0,0,0,0,0,0,0,0,0,0,0,0,0,0,0,0,0,0,0,0,0,0,0,0,0,0,0,0,0,0,0,0,0,0,0,0,0,0,0,0,0,0,0,0,0,0,0,2.546,2.546,0,2.5469,2.5469,2.547,2.5409,2.5407,2.5406,2.5404,2.5414,2.5416,2.5418,0,0,0,0,0,0,0,0,0,0,0,0,0,2.539,2.5392,2.546,2.546,2.5461,2.5469,2.5469,2.547,2.5409,2.5407,2.5405,2.5403,2.5413,2.5415,2.5418,0,0,0,0,0,0,0,0,0,0,0,0,0,2.5412,2.5392,2.546,2.5432,2.5429,2.5469,2.547,2.547,2.541,2.5407,2.5405,2.5402,2.5413,2.5415,2.5418,2.5487,0,0,2.5427,2.5428,0,0,0,0,0,0,0,0,2.5411,2.5415,2.5436,2.5434,2.5431,2.5435,2.5448,2.5475,2.541,2.5417,2.5404,2.5401,2.5423,2.5425,2.5432,2.5487,2.5487,2.5427,2.5428,2.543,2.543,0,0,0,0,0,0,0,2.541,2.5414,2.5464,2.5436,2.5433,2.5418,2.5418,2.5453,2.5434,2.5416,2.5412,2.5414,2.5421,2.543,2.5432,2.5488,2.5427,2.5429,2.5431,2.5432,2.5597,2.5599,0,0,0,0,0,0,2.5412,2.5413,2.5464,2.5464,2.5414,2.5421,2.5422,2.5437,2.5434,2.5431,2.5416,2.5411,2.5426,2.5429,2.5432,2.551,2.543,2.5432,2.5434,2.5594,2.5597,2.56,0,0,0,0,0,0,2.5411,2.5417,2.5463,2.5437,2.5442,2.5425,2.5443,2.5438,2.5446,2.5434,2.543,2.5428,2.5424,2.5428,2.5473,2.551,2.5434,2.5436,2.5591,2.5595,2.5599,2.5669,0,0,0,0,0,0,2.5409,2.5417,2.5443,2.5439,2.5444,2.5504,2.5445,2.544,2.5451,2.5445,2.5444,2.5441,2.5423,2.5469,2.5476,2.5512,2.5438,2.5587,2.5593,2.5597,2.5663,2.5675,2.5685,0,0,0,0,0,2.5407,2.5463,2.5445,2.5451,2.5476,2.5507,2.551,2.5487,2.5455,2.548,2.5472,2.5441,2.5505,2.5474,2.5481,2.5519,2.5585,2.5591,2.5597,2.5658,2.5672,2.5685,0,0,0,0,0,0,2.5473,2.5462,2.5442,2.5498,2.5504,2.5496,2.5528,2.5503,2.5518,2.5511,2.5482,2.5483,2.5532,2.553,2.5496,2.5584,2.5539,2.5547,2.5583,2.5597,2.5608,2.5606,2.5441,0,0,0,0,0,2.5495,2.552,2.5509,2.556,2.5564,2.5546,2.5558,2.554,2.5544,2.5547,2.5541,2.5547,2.5568,2.5583,2.5601,2.5663,2.5661,2.5692,2.5703,2.5712,2.5719,2.5749,2.5763,2.562,2.562,2.562,0,0,2.5539,2.5536,2.5554,2.5573,2.5575,2.5602,2.5548,2.5579,2.5598,2.5551,2.5592,2.5589,2.5593,2.5646,2.5669,2.5646,2.5758,2.572,2.5727,2.5729,2.5757,2.577,2.5782,2.5624,2.5623,2.5623,0,0,2.5633,2.5634,2.5675,2.5678,2.5681,2.5669,2.5679,2.5675,2.567,2.5711,2.5676,2.5698,2.5736,2.574,2.5747,2.584,2.5812,2.5847,2.5903,2.5933,2.5945,2.5954,2.5986,2.5998,2.5854,2.5854,2.5854,0,2.5687,2.5726,2.57,2.5733,2.5742,2.57,2.5741,2.5745,2.5755,2.5762,2.5736,2.578,2.5781,2.5833,2.5855,2.5863,2.5873,2.5847,2.5945,2.5955,2.5963,2.5993,2.6006,2.5858,2.5858,2.5858,2.5857,0,2.5792,2.5819,2.5852,2.5861,2.5874,2.5911,2.5891,2.5907,2.5887,2.5877,2.5918,2.5917,2.5933,2.5945,2.5927,2.5994,2.5979,2.595,2.5904,2.5981,2.6009,2.602,2.5864,2.5863,2.5862,2.5861,0,0,2.5929,2.5922,2.5934,2.5937,2.5937,2.5957,2.5992,2.6008,2.6021,2.6029,2.6056,2.6088,2.606,2.6068,2.605,2.6077,2.6148,2.6043,2.6043,2.6062,2.6221,2.6242,2.6256,2.613,2.6132,2.6134,2.622,0,2.6019,2.6077,2.6054,2.6113,2.6137,2.6097,2.6127,2.613,2.6121,2.614,2.613,2.6153,2.6115,2.6119,2.6144,2.6135,2.618,2.6128,2.6155,2.6156,2.6153,2.627,2.6293,2.6374,2.6231,2.6232,2.6234,0,2.6132,2.6143,2.6205,2.6198,2.6208,2.6235,2.6246,2.6265,2.6267,2.6259,2.6267,2.6242,2.6275,2.623,2.6274,2.6239,2.6249,2.6246,2.6248,2.6249,2.6199,2.6273,2.64,2.6411,2.6251,2.6249,2.6248,0,2.6223,2.6253,2.6294,2.6297,2.6292,2.6312,2.631,2.631,2.632,2.633,2.6336,2.6351,2.6359,2.637,2.635,2.6319,2.6396,2.635,2.6389,2.639,2.6407,2.6406,2.6535,2.6415,2.6415,2.6415,2.6415,0,2.6325,2.6364,2.6334,2.6359,2.6401,2.6374,2.6416,2.6411,2.641,2.6433,2.64,2.6422,2.6394,2.6413,2.6397,2.6435,2.6439,2.6433,2.6428,2.6435,2.6436,2.644,2.6433,2.6418,2.6417,2.6417,2.6416,0,2.6433,2.6415,2.6456,2.6447,2.6445,2.6477,2.6468,2.6491,2.6479,2.6508,2.6513,2.6495,2.6516,2.6497,2.6517,2.6506,2.6556,2.6544,2.6555,2.6551,2.6591,2.6587,2.6728,2.6744,2.6615,2.6616,2.6617,0,2.6499,2.6528,2.6521,2.6533,2.6534,2.6554,2.6564,2.6539,2.655,2.6554,2.6575,2.6593,2.6606,2.664,2.6629,2.6644,2.6631,2.6679,2.6633,2.6638,2.6629,2.6627,2.6629,2.6688,2.6689,2.6691,2.6692,0,2.6617,2.6606,2.6621,2.6633,2.6646,2.6654,2.666,2.6672,2.6645,2.666,2.668,2.669,2.6709,2.6727,2.6738,2.6736,2.6709,2.6706,2.6716,2.6723,2.6727,2.6724,2.6579,2.6703,2.6702,2.6701,2.67,2.67,2.6705,2.6728,2.6726,2.6744,2.6745,2.6751,2.6771,2.6761,2.6777,2.679,2.6774,2.6799,2.6799,2.6811,2.6812,2.683,2.681,2.6825,2.6828,2.6832,2.6837,2.6726,2.6833,2.6832,2.6832,2.6832,2.6831,0,2.682,2.6816,2.6833,2.6841,2.6855,2.6828,2.6832,2.6845,2.6867,2.6869,2.6882,2.6904,2.692,2.691,2.6924,2.6941,2.6929,2.6945,2.6943,2.6943,2.6855,2.6844,2.6954,2.6954,2.6954,2.6954,2.6954,2.6954,2.6881,2.6917,2.6906,2.6943,2.6939,2.6962,2.6966,2.6971,2.6972,2.6999,2.7012,2.7005,2.7001,2.7015,2.7028,2.7025,2.7031,2.7051,2.7043,2.6961,2.6949,2.6938,2.6927,2.7053,2.7053,2.7129,2.713,2.7131]}]]